Location: Blienschwiller
(48.3416°N, 7.4182°E)
Time: 20:36:58
(UTC+00:00)

Cosmos 1633 - Pass Details

Date: 18 February 2020
Orbit: 463 x 482 km, 82.5° (Epoch: 07 April)

Event Time Altitude Azimuth Distance (km) Brightness Sun altitude
Rises 05:00:31 0° 350° (N) 2,560 6.1 -16.1°
Reaches altitude 10° 05:02:37 10° 349° (N) 1,676 5.2 -15.7°
Maximum altitude 05:06:18 85° 261° (W) 493 2.4 -15.1°
Drops below altitude 10° 05:09:56 10° 174° (S) 1,660 5.4 -14.5°
Sets 05:12:01 0° 174° (S) 2,534 6.3 -14.1°
